Weather History for KRAS - March, 2013

Change the Weather History Date:

Monday, March 18, 2013

  Actual Average (KCRP) Record (KCRP)
Temperature  
Mean Temperature 70 °F 66 °F  
Max Temperature 75 °F 76 °F 92 °F (1971)
Min Temperature 66 °F 57 °F 31 °F (1892)
Degree Days  
Heating Degree Days 0 2  
Month to date heating degree days 59  
Since 1 July heating degree days 859  
Cooling Degree Days 5 4  
Month to date cooling degree days 56  
Year to date cooling degree days 132  
Growing Degree Days 20 (Base 50)    
Moisture  
Dew Point 66 °F    
Average Humidity 88    
Maximum Humidity 99    
Minimum Humidity 73    
Precipitation  
Precipitation 0.00 in 0.06 in 1.84 in (1888)
Month to date precipitation 1.13  
Year to date precipitation 4.60  
Snow  
Snow 0.00 in - - ()
Month to date snowfall  
Since 1 July snowfall  
Snow Depth -    
Sea Level Pressure  
Sea Level Pressure 29.78 in    
Wind  
Wind Speed 9 mph (SSE)    
Max Wind Speed 14 mph    
Max Gust Speed 20 mph    
Visibility 7 miles    
Events      
T = Trace of Precipitation, MM = Missing Value Source: NWS Daily Summary

Daily Weather History Graph

Daily Weather History Graph

Search for Another Location

Airport or City:

Trip Planner

Search our weather history database for the weather conditions in past years. The results will help you decide how hot, cold, wet, or windy it might be!

Date:

Astronomy

Mar. 18, 2013 Rise Set
Actual Time 7:34 AM CDT 7:38 PM CDT
Civil Twilight 7:10 AM CDT 8:02 PM CDT
Nautical Twilight 6:43 AM CDT 8:29 PM CDT
Astronomical Twilight 6:16 AM CDT 8:56 PM CDT
Moon 12:03 PM CDT (3/18) 1:10 AM CDT (3/18)
Length of Visible Light 12h 51m
Length of Day
12h 04m
Waxing Crescent, 41% of the Moon is Illuminated
Mar 18
Waxing Crescent
Mar 19
First Quarter
Mar 27
Full
Apr 2
Last Quarter
Apr 10
New

Hourly Weather History & Observations

Time (CDT) Temp. Dew Point Humidity Pressure Visibility Wind Dir Wind Speed Gust Speed Precip Events Conditions
12:15 AM 67.8 °F 67.1 °F 98% 29.73 in 3.0 mi SSE 13.8 mph 18.4 mph N/A   Overcast
12:35 AM 67.6 °F 66.9 °F 98% 29.73 in 2.0 mi SSE 12.7 mph 16.1 mph N/A   Overcast
12:55 AM 67.6 °F 67.1 °F 98% 29.73 in 1.5 mi SSE 11.5 mph - N/A   Overcast
1:15 AM 67.3 °F 66.7 °F 98% 29.72 in 1.2 mi South 11.5 mph - N/A   Overcast
1:35 AM 67.3 °F 66.9 °F 99% 29.73 in 4.0 mi South 10.4 mph - N/A   Overcast
1:55 AM 67.5 °F 66.7 °F 98% 29.73 in 5.0 mi South 6.9 mph - N/A   Overcast
2:15 AM 67.5 °F 66.6 °F 97% 29.74 in 5.0 mi South 5.8 mph - N/A   Overcast
2:35 AM 67.3 °F 66.4 °F 97% 29.74 in 5.0 mi South 5.8 mph - N/A   Overcast
2:55 AM 67.3 °F 66.2 °F 96% 29.74 in 5.0 mi South 5.8 mph - N/A   Overcast
3:15 AM 67.1 °F 66.2 °F 97% 29.73 in 5.0 mi South 5.8 mph - N/A   Overcast
3:35 AM 67.3 °F 66.2 °F 96% 29.73 in 5.0 mi South 6.9 mph - N/A   Overcast
3:55 AM 67.3 °F 66.2 °F 96% 29.73 in 5.0 mi SSW 8.1 mph - N/A   Overcast
4:15 AM 67.3 °F 65.5 °F 94% 29.73 in 7.0 mi South 10.4 mph 17.3 mph N/A   Overcast
4:35 AM 67.1 °F 65.1 °F 93% 29.73 in 7.0 mi South 12.7 mph - N/A   Overcast
4:55 AM 67.1 °F 64.9 °F 93% 29.73 in 7.0 mi South 8.1 mph - N/A   Overcast
5:15 AM 67.3 °F 65.3 °F 93% 29.73 in 7.0 mi South 5.8 mph - N/A   Overcast
5:35 AM 67.1 °F 64.9 °F 93% 29.72 in 7.0 mi SSE 10.4 mph - N/A   Overcast
6:15 AM 66.4 °F 64.8 °F 95% 29.73 in 5.0 mi South 9.2 mph - N/A   Overcast
6:35 AM 66.7 °F 64.8 °F 93% 29.73 in 7.0 mi South 11.5 mph 19.6 mph N/A   Overcast
6:55 AM 67.1 °F 64.8 °F 92% 29.75 in 7.0 mi South 10.4 mph - N/A   Overcast
7:15 AM 67.3 °F 64.8 °F 92% 29.77 in 7.0 mi SSW 3.5 mph - N/A   Overcast
7:55 AM 67.5 °F 64.6 °F 90% 29.77 in 5.0 mi South 5.8 mph - N/A   Overcast
8:15 AM 67.5 °F 64.4 °F 90% 29.79 in 5.0 mi Calm Calm - N/A   Overcast
8:35 AM 67.6 °F 64.0 °F 88% 29.81 in 7.0 mi Calm Calm - N/A   Overcast
8:55 AM 68.2 °F 64.2 °F 87% 29.81 in 7.0 mi Calm Calm - N/A   Overcast
9:15 AM 68.7 °F 64.4 °F 86% 29.82 in 7.0 mi East 3.5 mph - N/A   Overcast
9:35 AM 69.1 °F 64.2 °F 84% 29.82 in 7.0 mi ESE 6.9 mph - N/A   Overcast
9:55 AM 69.3 °F 64.4 °F 84% 29.82 in 7.0 mi ESE 4.6 mph - N/A   Overcast
10:15 AM 69.8 °F 63.5 °F 80% 29.83 in 10.0 mi ESE 3.5 mph - N/A   Overcast
10:35 AM 70.0 °F 63.7 °F 80% 29.83 in 10.0 mi Calm Calm - N/A   Overcast
10:55 AM 70.2 °F 63.9 °F 80% 29.82 in 7.0 mi ESE 3.5 mph - N/A   Overcast
11:15 AM 70.7 °F 63.9 °F 79% 29.83 in 10.0 mi ESE 4.6 mph - N/A   Overcast
11:35 AM 70.7 °F 64.4 °F 80% 29.82 in 7.0 mi ESE 6.9 mph - N/A   Overcast
11:55 AM 71.1 °F 64.6 °F 80% 29.82 in 7.0 mi SE 6.9 mph - N/A   Overcast
12:15 PM 72.9 °F 65.3 °F 77% 29.81 in 7.0 mi ESE 10.4 mph - N/A   Overcast
12:35 PM 72.9 °F 65.5 °F 78% 29.81 in 7.0 mi SE 6.9 mph - N/A   Scattered Clouds
12:55 PM 72.3 °F 65.3 °F 78% 29.80 in 7.0 mi SE 10.4 mph - N/A   Scattered Clouds
1:15 PM 72.7 °F 65.7 °F 79% 29.80 in 7.0 mi SSE 10.4 mph - N/A   Mostly Cloudy
1:35 PM 73.0 °F 65.5 °F 77% 29.80 in 7.0 mi South 9.2 mph - N/A   Mostly Cloudy
1:55 PM 74.7 °F 65.3 °F 73% 29.80 in 10.0 mi South 9.2 mph 16.1 mph N/A   Mostly Cloudy
2:15 PM 73.8 °F 66.0 °F 77% 29.80 in 10.0 mi South 9.2 mph - N/A   Mostly Cloudy
2:35 PM 74.1 °F 66.4 °F 77% 29.79 in 10.0 mi South 9.2 mph - N/A   Scattered Clouds
2:55 PM 73.8 °F 66.4 °F 78% 29.78 in 7.0 mi South 8.1 mph - N/A   Clear
3:15 PM 73.0 °F 66.2 °F 79% 29.78 in 10.0 mi South 6.9 mph - N/A   Clear
3:35 PM 73.9 °F 66.2 °F 77% 29.76 in 7.0 mi SSE 6.9 mph - N/A   Clear
3:55 PM 73.2 °F 66.2 °F 79% 29.75 in 7.0 mi SSE 10.4 mph - N/A   Clear
4:15 PM 73.0 °F 66.4 °F 80% 29.75 in 7.0 mi South 9.2 mph - N/A   Clear
4:35 PM 72.1 °F 66.0 °F 81% 29.75 in 7.0 mi SSE 9.2 mph - N/A   Clear
4:55 PM 72.7 °F 66.0 °F 80% 29.74 in 7.0 mi SSE 9.2 mph - N/A   Clear
5:15 PM 72.7 °F 66.0 °F 80% 29.74 in 10.0 mi SSE 6.9 mph - N/A   Clear
5:35 PM 72.3 °F 66.2 °F 81% 29.75 in 7.0 mi SE 9.2 mph - N/A   Clear
5:55 PM 71.6 °F 66.2 °F 83% 29.75 in 7.0 mi SE 9.2 mph - N/A   Clear
6:15 PM 71.1 °F 66.4 °F 85% 29.75 in 7.0 mi SE 9.2 mph - N/A   Clear
6:35 PM 70.9 °F 66.6 °F 86% 29.75 in 7.0 mi SE 8.1 mph - N/A   Clear
6:55 PM 70.0 °F 66.6 °F 89% 29.75 in 7.0 mi SE 10.4 mph - N/A   Clear
7:15 PM 70.0 °F 66.7 °F 89% 29.75 in 7.0 mi ESE 6.9 mph - N/A   Clear
7:35 PM 69.1 °F 66.6 °F 92% 29.76 in 7.0 mi ESE 9.2 mph - N/A   Clear
7:55 PM 68.9 °F 66.6 °F 92% 29.77 in 7.0 mi ESE 5.8 mph - N/A   Clear
8:15 PM 68.4 °F 66.4 °F 93% 29.78 in 7.0 mi ESE 5.8 mph - N/A   Clear
8:35 PM 68.2 °F 66.6 °F 95% 29.78 in 7.0 mi ESE 6.9 mph - N/A   Clear
8:55 PM 68.0 °F 66.6 °F 95% 29.79 in 7.0 mi SE 5.8 mph - N/A   Clear
9:15 PM 68.2 °F 66.7 °F 95% 29.80 in 7.0 mi SE 8.1 mph - N/A   Clear
9:35 PM 68.2 °F 66.9 °F 96% 29.80 in 7.0 mi SE 9.2 mph - N/A   Scattered Clouds
9:55 PM 68.2 °F 66.9 °F 96% 29.81 in 7.0 mi SE 8.1 mph - N/A   Scattered Clouds
10:15 PM 67.6 °F 66.6 °F 96% 29.82 in 5.0 mi SSE 8.1 mph - N/A   Clear
10:55 PM 69.1 °F 67.8 °F 96% 29.88 in 7.0 mi North 10.4 mph - N/A   Overcast
11:15 PM 68.7 °F 67.1 °F 95% 29.86 in 7.0 mi ENE 5.8 mph - N/A   Mostly Cloudy
11:35 PM 68.4 °F 66.9 °F 95% 29.86 in 5.0 mi East 6.9 mph - N/A   Clear
11:55 PM 68.2 °F 66.9 °F 96% 29.86 in 5.0 mi ENE 4.6 mph - N/A   Clear